Hourly Weather Roundup
Issued by NWS

Home | Current Version | Previous Version | Text Only | Print | Product List | Glossary On
Versions: 1 2 3 4 5 6 7 8 9 10 11 12 13 14 15 16 17 18 19 20 21 22 23 24 25 26 27 28 29 30 31 32 33 34 35 36 37 38 39 40 41 42 43 44 45 46 47 48 49 50
000
NZUS43 KILX 021510
HWRCRS

NWR Hourly Weather Roundup
National Weather Service Lincoln IL
1000 AM CDT THU JUL 02 2020


CITY           SKY/WX    TMP DP  RH WIND       PRES   REMARKS
Champaign      MOSUNNY   83  71  67 E5        30.02S HX  87
Lawrenceville  MOSUNNY   84  75  74 CALM      29.99R HX  92
Peoria         SUNNY     83  68  60 E6        30.02R HX  86
Springfield    SUNNY     83  72  69 E3        30.01R HX  88
$$


CITY           SKY/WX    TMP DP  RH WIND       PRES   REMARKS
Bloomington    MOSUNNY   85  68  56 NE9       30.04S HX  88
Danville       SUNNY     82  69  64 E3        30.04R HX  86
Decatur        SUNNY     83  75  77 NE3       30.01S HX  90
Effingham      SUNNY     84  73  69 CALM      30.01S HX  90
Flora          SUNNY     82  73  74 SE3       29.99S HX  88
Galesburg      MOSUNNY   82  66  57 E5        30.04R HX  84
Jacksonville   CLOUDY    75  75  99 E3        30.02R
Lacon          SUNNY     83  67  57 E3        30.02S HX  86
La Salle       SUNNY     83  69  61 E5        30.04S HX  87
Lincoln        SUNNY     84  68  57 SE3       30.01S HX  87
Litchfield     CLOUDY    74  73  98 CALM      30.03R

CITY           SKY/WX    TMP DP  RH WIND       PRES   REMARKS
Macomb         MOSUNNY   80  74  82 E6        30.04S HX  85
Mattoon        SUNNY     85  73  67 VRB3      30.00R HX  91
Moline         MOSUNNY   82  67  60 NE7       30.03S HX  84
Olney          SUNNY     85  73  68 CALM      30.00S HX  91
Paris          SUNNY     85  74  69 CALM      30.02S HX  92
Pontiac        SUNNY     84  65  52 E10       30.04S HX  86
Quincy         CLOUDY    79  71  76 NE6       30.01S HX  82
Rantoul        PTSUNNY   80  71  74 E8        30.03R HX  83
Robinson       SUNNY     82  76  81 E3        30.00S HX  89
Taylorville    SUNNY     82  74  77 CALM      30.01S HX  87
Terre Haute    SUNNY     84  72  67 CALM      30.00S HX  89
$$


CITY           SKY/WX    TMP DP  RH WIND       PRES   REMARKS
Burlington     MOSUNNY   80  73  79 CALM      30.02R HX  84
Chicago        MOSUNNY   86  66  51 NE6       30.05S HX  88
Des Moines     MOSUNNY   79  71  76 S5        30.05R HX  82
Evansville     SUNNY     83  71  67 E3        29.98S HX  87
Indianapolis   MOSUNNY   84  67  56 NE9       30.02S HX  86
Kansas City    CLOUDY    78  72  81 NE7       30.04R HX  80
Milwaukee      PTSUNNY   79  65  62 NE7       30.07S HX  81
St Louis       PTSUNNY   79  70  74 CALM      30.01R HX  82
$$





USA.gov is the U.S. government's official web portal to all federal, state and local government web resources and services.